SCP
0 0 0 0 0 0 0 0 0 0 0 0 0 0 0 0 0 0 0 0 0 0
0 0 0 0 0 0 0 0 0 0 0 0 0 0 0 0 0 0 0 0 0 0
0 0 0 0 0 0 0 0 0 0 0 0 0 0 0 0 0 0 0 0 0 0
0 0 0 0 0 0 0 0 0 0 0 0 0 0 0 0 0 0 0 0 0 0
0 0 0 0 0 0 0 0 0 0 0 0 0 0 0 0 0 0 0 0 0 0
0 0 0 0 0 0 0 0 0 0 0 0 0 0 0 0 0 0 0 0 0 0
0 0 0 0 0 0 0 0 0 0 0 0 0 0 0 0 0 0 0 0 0 0
0 0 0 0 0 0 0 0 0 0 0 0 0 0 0 0 0 0 0 0 0 0
0 0 0 0 0 0 0 0 0 0 0 0 0 0 0 0 0 0 0 0 0 0
0 0 0 0 0 0 0 0 0 0 0 0 0 0 0 0 0 0 0 0 0 0
0 0 0 0 0 0 0 0 0 0 0 0 0 0 0 0 0 0 0 0 0 0
0 0 0 0 0 0 0 0 0 0 0 0 0 0 0 0 0 0 0 0 0 0
0 0 0 0 0 0 0 0 0 0 0 0 0 0 0 0 0 0 0 0 0 0
0 0 0 0 0 0 0 0 0 0 0 0 0 0 0 0 0 0 0 0 0 0
Wind_Speed_500mb
50 49 46 42 41 39 36 32 32 31 31 28 29 30 30 28 27 30 31 31 32 32
53 52 49 43 43 42 39 35 34 34 33 31 30 32 32 31 29 32 32 33 34 36
54 52 50 48 47 44 40 38 37 36 35 34 32 32 35 33 31 34 32 33 37 38
57 54 53 54 50 47 43 41 41 38 37 37 34 34 37 35 33 35 34 33 38 39
61 56 56 57 53 48 47 44 43 41 40 39 37 36 38 38 36 36 36 34 37 38
65 61 59 57 54 52 49 47 46 45 43 40 39 39 39 40 38 37 37 35 37 37
66 62 57 55 55 54 52 50 49 48 46 43 41 41 40 41 41 39 38 36 37 37
62 60 58 56 56 55 55 54 51 50 50 47 44 41 40 40 42 41 39 37 35 34
62 61 60 58 57 57 57 57 55 54 52 50 48 41 40 41 43 42 41 39 35 33
54 59 60 58 58 59 60 57 58 55 53 52 48 43 42 41 43 44 42 40 37 35
47 53 55 58 60 59 60 60 59 57 53 52 49 45 43 41 42 44 43 40 38 36
43 48 53 56 58 58 60 60 60 57 53 53 49 45 45 43 44 44 42 38 37 35
36 43 50 51 53 53 56 58 57 57 55 52 51 46 45 44 44 45 41 37 34 32
36 40 44 47 51 52 53 56 58 58 57 56 53 49 47 45 47 44 39 38 34 29
Wind_Direction_500mb
253 254 257 259 260 260 264 267 266 273 279 284 289 294 299 304 307 304 305 301 307 310
253 253 255 259 261 260 261 265 265 269 275 278 283 290 294 300 304 303 304 298 301 307
254 255 256 255 257 259 260 262 264 267 273 275 280 287 291 297 300 301 304 299 300 305
251 253 255 255 256 258 257 258 262 266 269 274 278 284 288 294 297 299 301 300 301 306
252 252 254 255 255 256 258 258 261 264 267 272 277 281 286 291 294 296 300 300 300 306
248 251 254 256 256 255 257 258 259 262 267 271 275 279 284 288 291 294 298 298 301 307
247 250 254 258 256 255 256 257 258 261 265 268 271 276 282 286 289 292 296 296 298 304
250 252 253 254 253 253 253 256 259 260 262 266 269 275 280 283 286 289 293 295 295 298
251 252 253 253 252 251 252 254 257 259 262 265 268 274 277 281 283 286 289 294 294 297
253 252 255 255 252 250 250 253 255 258 260 264 267 270 274 277 280 284 289 292 294 296
256 255 253 252 251 250 250 251 253 256 258 262 264 266 270 274 276 279 284 289 290 291
264 262 258 254 254 253 252 251 251 254 256 258 261 263 266 268 272 275 281 285 284 286
268 264 262 261 257 257 255 256 256 254 253 255 257 257 260 263 267 271 278 279 279 281
274 268 266 263 258 256 254 254 253 253 252 253 255 254 256 258 263 269 272 272 273 276
Wind_Speed_850mb
50 49 46 42 41 39 36 32 32 31 31 28 29 30 30 28 27 30 31 31 32 32
53 52 49 43 43 42 39 35 34 34 33 31 30 32 32 31 29 32 32 33 34 36
54 52 50 48 47 44 40 38 37 36 35 34 32 32 35 33 31 34 32 33 37 38
57 54 53 54 50 47 43 41 41 38 37 37 34 34 37 35 33 35 34 33 38 39
61 56 56 57 53 48 47 44 43 41 40 39 37 36 38 38 36 36 36 34 37 38
65 61 59 57 54 52 49 47 46 45 43 40 39 39 39 40 38 37 37 35 37 37
66 62 57 55 55 54 52 50 49 48 46 43 41 41 40 41 41 39 38 36 37 37
62 60 58 56 56 55 55 54 51 50 50 47 44 41 40 40 42 41 39 37 35 34
62 61 60 58 57 57 57 57 55 54 52 50 48 41 40 41 43 42 41 39 35 33
54 59 60 58 58 59 60 57 58 55 53 52 48 43 42 41 43 44 42 40 37 35
47 53 55 58 60 59 60 60 59 57 53 52 49 45 43 41 42 44 43 40 38 36
43 48 53 56 58 58 60 60 60 57 53 53 49 45 45 43 44 44 42 38 37 35
36 43 50 51 53 53 56 58 57 57 55 52 51 46 45 44 44 45 41 37 34 32
36 40 44 47 51 52 53 56 58 58 57 56 53 49 47 45 47 44 39 38 34 29
Wind_Direction_850mb
253 254 257 259 260 260 264 267 266 273 279 284 289 294 299 304 307 304 305 301 307 310
253 253 255 259 261 260 261 265 265 269 275 278 283 290 294 300 304 303 304 298 301 307
254 255 256 255 257 259 260 262 264 267 273 275 280 287 291 297 300 301 304 299 300 305
251 253 255 255 256 258 257 258 262 266 269 274 278 284 288 294 297 299 301 300 301 306
252 252 254 255 255 256 258 258 261 264 267 272 277 281 286 291 294 296 300 300 300 306
248 251 254 256 256 255 257 258 259 262 267 271 275 279 284 288 291 294 298 298 301 307
247 250 254 258 256 255 256 257 258 261 265 268 271 276 282 286 289 292 296 296 298 304
250 252 253 254 253 253 253 256 259 260 262 266 269 275 280 283 286 289 293 295 295 298
251 252 253 253 252 251 252 254 257 259 262 265 268 274 277 281 283 286 289 294 294 297
253 252 255 255 252 250 250 253 255 258 260 264 267 270 274 277 280 284 289 292 294 296
256 255 253 252 251 250 250 251 253 256 258 262 264 266 270 274 276 279 284 289 290 291
264 262 258 254 254 253 252 251 251 254 256 258 261 263 266 268 272 275 281 285 284 286
268 264 262 261 257 257 255 256 256 254 253 255 257 257 260 263 267 271 278 279 279 281
274 268 266 263 258 256 254 254 253 253 252 253 255 254 256 258 263 269 272 272 273 276